Location: *
(47.2969°N, 10.2930°E)
Time: 03:39:24
(UTC+00:00)

CZ-2C R/B - Pass Details

Date: 09 April 2020
Orbit: 639 x 705 km, 98.4° (Epoch: 26 May)

Event Time Altitude Azimuth Distance (km) Brightness Sun altitude
Rises 18:48:08 0° 20° (NNE) 3,082 7.2 -8.6°
Reaches altitude 10° 18:50:32 10° 28° (NNE) 2,151 6.3 -9.0°
Maximum altitude 18:54:58 41° 98° (E) 994 4.2 -9.7°
Drops below altitude 10° 18:59:17 10° 169° (SSE) 2,096 5.9 -10.3°
Sets 19:01:36 0° 176° (S) 2,993 6.8 -10.7°
